TimeCST,TemperatureF,Dew PointF,Humidity,Sea Level PressureIn,VisibilityMPH,Wind Direction,Wind SpeedMPH,Gust SpeedMPH,PrecipitationIn,Events,Conditions,WindDirDegrees,DateUTC
12:52 AM,30.0,23.0,75,30.33,10.0,NW,4.6,-,N/A,,Clear,310,2012-11-12 06:52:00
1:52 AM,28.9,23.0,78,30.35,10.0,Calm,Calm,-,N/A,,Clear,0,2012-11-12 07:52:00
2:52 AM,30.0,23.0,75,30.37,10.0,Calm,Calm,-,N/A,,Clear,0,2012-11-12 08:52:00
3:52 AM,28.9,23.0,78,30.39,10.0,Calm,Calm,-,N/A,,Clear,0,2012-11-12 09:52:00
6:52 AM,27.0,23.0,85,30.43,10.0,South,4.6,-,N/A,,Clear,180,2012-11-12 12:52:00
7:52 AM,28.9,24.1,82,30.46,10.0,Calm,Calm,-,N/A,,Clear,0,2012-11-12 13:52:00
8:52 AM,34.0,26.1,73,30.47,10.0,West,4.6,-,N/A,,Clear,260,2012-11-12 14:52:00
9:52 AM,39.0,26.1,60,30.48,10.0,WSW,8.1,-,N/A,,Clear,240,2012-11-12 15:52:00
10:52 AM,43.0,25.0,49,30.48,10.0,West,6.9,-,N/A,,Clear,270,2012-11-12 16:52:00
11:52 AM,46.0,24.1,42,30.46,10.0,WSW,5.8,-,N/A,,Clear,240,2012-11-12 17:52:00
12:52 PM,48.9,23.0,36,30.45,10.0,West,11.5,18.4,N/A,,Clear,260,2012-11-12 18:52:00
1:52 PM,52.0,23.0,32,30.43,10.0,West,10.4,-,N/A,,Clear,260,2012-11-12 19:52:00
2:52 PM,52.0,21.9,31,30.42,10.0,West,10.4,-,N/A,,Clear,280,2012-11-12 20:52:00
3:52 PM,52.0,21.9,31,30.43,10.0,West,11.5,-,N/A,,Clear,280,2012-11-12 21:52:00
4:52 PM,48.9,23.0,36,30.43,10.0,West,5.8,-,N/A,,Clear,280,2012-11-12 22:52:00
5:52 PM,46.9,24.1,41,30.44,10.0,Calm,Calm,-,N/A,,Clear,0,2012-11-12 23:52:00
6:52 PM,41.0,28.0,60,30.46,10.0,Calm,Calm,-,N/A,,Clear,0,2012-11-13 00:52:00
7:52 PM,37.9,28.0,68,30.47,10.0,Calm,Calm,-,N/A,,Clear,0,2012-11-13 01:52:00
8:52 PM,37.0,28.9,73,30.48,10.0,South,3.5,-,N/A,,Clear,190,2012-11-13 02:52:00
9:52 PM,35.1,28.0,76,30.48,10.0,Calm,Calm,-,N/A,,Clear,0,2012-11-13 03:52:00
10:52 PM,35.1,28.0,76,30.48,10.0,South,4.6,-,N/A,,Clear,170,2012-11-13 04:52:00
11:52 PM,34.0,27.0,75,30.48,10.0,South,4.6,-,N/A,,Clear,170,2012-11-13 05:52:00